Temp
-14 -14 -15 -15 -15 -15 -15 -15 -14 -14 -14 -14 -15 -14 -15 -16 -17 -17 -18 -18 -18 -18 -18 -18 -18 -18 -20 -21 -22 -22 -22 -23 -23 -24 -24 -24 -25 -25 -24 -23 -21 -20 -19 -17
-15 -15 -14 -15 -15 -15 -15 -15 -15 -14 -15 -15 -15 -15 -16 -17 -17 -17 -18 -18 -18 -18 -18 -19 -20 -20 -21 -22 -22 -23 -23 -23 -24 -24 -25 -25 -25 -25 -25 -24 -24 -23 -21 -19
-15 -15 -15 -15 -15 -16 -15 -15 -15 -14 -15 -15 -15 -15 -16 -17 -17 -18 -18 -18 -19 -19 -19 -20 -21 -21 -22 -23 -23 -23 -24 -25 -25 -25 -26 -26 -27 -26 -26 -25 -25 -24 -23 -21
-15 -15 -15 -15 -16 -16 -16 -16 -15 -15 -15 -15 -16 -15 -17 -17 -17 -18 -18 -18 -19 -20 -20 -21 -22 -22 -23 -23 -23 -24 -25 -25 -26 -26 -27 -27 -27 -27 -26 -26 -26 -25 -24 -22
-15 -15 -15 -15 -15 -16 -16 -16 -15 -15 -15 -15 -16 -16 -17 -17 -18 -18 -18 -18 -19 -19 -20 -22 -22 -23 -23 -23 -24 -24 -24 -25 -26 -26 -27 -28 -28 -27 -26 -26 -26 -26 -25 -23
-15 -15 -15 -15 -16 -16 -16 -16 -15 -15 -15 -15 -16 -18 -17 -18 -18 -18 -19 -19 -20 -20 -21 -22 -23 -23 -23 -24 -24 -24 -25 -25 -26 -27 -27 -27 -28 -27 -27 -27 -27 -26 -25 -23
-16 -16 -15 -15 -16 -16 -16 -16 -15 -15 -15 -16 -17 -18 -18 -18 -18 -19 -19 -20 -20 -21 -22 -23 -23 -23 -23 -24 -24 -25 -25 -25 -26 -27 -27 -27 -28 -28 -28 -27 -27 -26 -26 -24
-16 -16 -15 -16 -16 -16 -16 -16 -16 -16 -16 -16 -18 -18 -18 -18 -18 -19 -19 -20 -20 -20 -21 -22 -23 -24 -24 -24 -24 -25 -25 -25 -26 -27 -27 -27 -28 -28 -28 -28 -27 -26 -26 -25
-16 -16 -16 -16 -16 -17 -16 -16 -16 -16 -16 -16 -17 -18 -18 -18 -18 -19 -19 -20 -20 -20 -20 -21 -22 -23 -24 -24 -24 -24 -25 -26 -26 -27 -27 -27 -28 -28 -28 -28 -27 -26 -26 -25
-16 -16 -16 -16 -17 -17 -16 -16 -16 -17 -17 -17 -17 -18 -18 -18 -19 -19 -19 -19 -20 -20 -20 -21 -22 -22 -23 -23 -24 -24 -24 -25 -26 -27 -27 -27 -28 -28 -28 -28 -27 -26 -25 -24
-16 -16 -16 -16 -17 -17 -17 -17 -17 -17 -18 -19 -18 -18 -18 -18 -18 -19 -19 -19 -19 -20 -20 -21 -21 -22 -22 -23 -23 -23 -23 -24 -25 -26 -27 -27 -28 -28 -27 -27 -26 -25 -24 -23
-17 -16 -16 -16 -17 -17 -16 -17 -17 -17 -18 -19 -18 -18 -18 -18 -18 -19 -19 -19 -19 -20 -20 -21 -21 -22 -22 -22 -23 -23 -23 -23 -24 -25 -26 -26 -26 -27 -26 -25 -24 -24 -23 -22
-16 -16 -16 -17 -17 -16 -16 -17 -17 -17 -18 -19 -18 -18 -18 -18 -18 -19 -19 -19 -19 -19 -19 -20 -21 -21 -22 -22 -23 -23 -22 -23 -23 -24 -24 -25 -25 -25 -24 -24 -23 -23 -21 -20
-17 -17 -16 -17 -16 -16 -16 -17 -17 -17 -18 -18 -18 -18 -18 -18 -18 -18 -18 -19 -19 -19 -19 -20 -21 -21 -22 -22 -22 -23 -23 -22 -23 -23 -23 -23 -23 -23 -23 -23 -22 -22 -21 -20
-17 -17 -17 -17 -16 -16 -16 -17 -17 -18 -18 -18 -18 -18 -18 -18 -18 -18 -19 -19 -19 -19 -19 -19 -20 -21 -21 -22 -22 -22 -23 -23 -23 -22 -22 -22 -22 -22 -22 -22 -21 -21 -21 -21
-17 -17 -17 -17 -16 -16 -16 -17 -17 -18 -18 -18 -18 -18 -18 -18 -19 -19 -19 -19 -19 -19 -20 -19 -19 -19 -20 -21 -22 -22 -22 -22 -22 -22 -22 -22 -22 -22 -22 -22 -21 -21 -21 -21
-17 -17 -17 -17 -17 -17 -17 -17 -18 -18 -18 -18 -18 -18 -18 -19 -19 -19 -19 -19 -19 -19 -19 -19 -20 -19 -20 -20 -21 -21 -21 -22 -22 -22 -22 -22 -22 -21 -21 -21 -21 -21 -21 -21
-17 -17 -17 -17 -17 -17 -17 -17 -18 -18 -18 -18 -18 -18 -19 -19 -19 -19 -19 -19 -19 -19 -19 -19 -19 -19 -20 -20 -20 -20 -21 -21 -21 -21 -21 -21 -20 -20 -20 -21 -21 -21 -21 -20
-18 -17 -17 -17 -17 -17 -17 -17 -18 -18 -18 -18 -18 -18 -18 -18 -19 -19 -19 -19 -19 -19 -19 -19 -19 -19 -19 -20 -20 -21 -20 -20 -20 -21 -21 -20 -20 -20 -20 -20 -20 -20 -20 -20
-18 -18 -17 -17 -17 -17 -17 -17 -18 -18 -18 -18 -18 -18 -18 -18 -18 -19 -19 -19 -19 -19 -19 -19 -19 -19 -19 -19 -19 -20 -20 -20 -20 -20 -20 -19 -19 -19 -19 -20 -19 -19 -20 -20
-18 -18 -17 -17 -17 -17 -17 -17 -17 -18 -18 -18 -18 -18 -18 -18 -18 -18 -19 -19 -19 -19 -19 -19 -19 -19 -19 -19 -19 -19 -19 -19 -19 -20 -20 -20 -20 -20 -20 -19 -19 -19 -19 -19
-19 -18 -18 -18 -18 -17 -17 -17 -17 -18 -18 -18 -18 -18 -18 -18 -18 -18 -18 -19 -19 -19 -19 -19 -19 -19 -19 -19 -19 -19 -19 -19 -19 -19 -19 -19 -19 -19 -19 -19 -19 -19 -19 -19
-19 -19 -19 -18 -18 -17 -17 -17 -17 -17 -17 -18 -18 -18 -18 -18 -18 -18 -18 -19 -19 -19 -19 -19 -19 -19 -19 -19 -19 -19 -19 -19 -19 -19 -19 -19 -19 -19 -19 -19 -19 -19 -19 -19
-20 -19 -19 -19 -18 -18 -17 -17 -17 -17 -17 -17 -17 -18 -18 -18 -18 -18 -18 -18 -18 -19 -19 -19 -19 -19 -19 -19 -19 -19 -19 -18 -18 -18 -19 -19 -19 -19 -19 -19 -19 -19 -19 -19
-20 -19 -19 -19 -19 -18 -17 -17 -17 -17 -17 -17 -17 -17 -18 -18 -18 -18 -18 -18 -18 -18 -19 -18 -18 -19 -19 -19 -19 -19 -19 -19 -19 -19 -19 -19 -19 -19 -19 -19 -20 -20 -20 -20
-20 -20 -19 -19 -19 -18 -18 -17 -17 -17 -17 -17 -17 -17 -17 -18 -18 -18 -18 -18 -18 -18 -18 -18 -18 -18 -19 -19 -19 -19 -19 -19 -19 -19 -19 -19 -19 -19 -19 -20 -20 -20 -20 -20
Height
5695 5694 5692 5691 5690 5689 5687 5684 5681 5677 5673 5668 5663 5657 5647 5637 5627 5621 5616 5610 5601 5594 5584 5574 5563 5551 5541 5534 5530 5525 5521 5517 5513 5510 5508 5507 5508 5509 5514 5523 5535 5549 5563 5578
5687 5685 5684 5682 5682 5681 5679 5676 5674 5669 5664 5659 5653 5647 5638 5629 5621 5612 5604 5597 5588 5578 5567 5556 5545 5536 5528 5522 5515 5510 5504 5500 5496 5493 5490 5489 5487 5488 5494 5503 5513 5525 5539 5555
5677 5677 5673 5674 5675 5673 5671 5669 5665 5660 5655 5650 5643 5638 5629 5619 5609 5602 5595 5586 5576 5564 5555 5544 5533 5525 5516 5508 5502 5495 5489 5484 5480 5477 5474 5471 5470 5471 5478 5486 5496 5507 5521 5539
5669 5666 5667 5667 5667 5665 5665 5662 5657 5653 5647 5641 5632 5625 5619 5608 5599 5593 5584 5576 5566 5556 5545 5535 5524 5513 5504 5496 5489 5482 5475 5469 5465 5462 5459 5456 5454 5456 5462 5472 5481 5493 5507 5526
5661 5660 5659 5660 5659 5658 5657 5654 5650 5645 5639 5632 5624 5616 5607 5600 5593 5585 5576 5568 5559 5549 5538 5525 5514 5505 5495 5485 5477 5470 5464 5458 5453 5449 5446 5444 5440 5442 5450 5460 5472 5483 5496 5514
5653 5654 5653 5653 5652 5650 5649 5646 5641 5636 5631 5624 5616 5606 5600 5592 5585 5578 5569 5561 5551 5540 5530 5519 5509 5498 5488 5478 5469 5462 5454 5447 5442 5439 5437 5437 5435 5437 5442 5452 5464 5476 5490 5508
5644 5646 5646 5646 5645 5644 5643 5639 5634 5628 5622 5615 5607 5599 5593 5587 5580 5573 5564 5554 5545 5535 5525 5515 5504 5493 5483 5473 5464 5455 5446 5439 5434 5432 5431 5431 5432 5434 5438 5446 5458 5472 5484 5493
5636 5639 5639 5639 5638 5638 5636 5633 5629 5620 5614 5610 5603 5595 5590 5583 5577 5569 5561 5550 5541 5532 5522 5511 5501 5490 5479 5470 5459 5450 5440 5432 5428 5426 5425 5427 5428 5431 5436 5443 5453 5464 5476 5488
5630 5631 5631 5632 5631 5632 5630 5627 5622 5615 5610 5602 5599 5592 5587 5580 5574 5567 5557 5548 5539 5529 5519 5509 5499 5488 5478 5468 5458 5447 5437 5430 5424 5423 5422 5423 5426 5431 5436 5441 5448 5460 5473 5486
5623 5624 5625 5626 5626 5627 5624 5621 5615 5609 5602 5595 5593 5588 5582 5577 5572 5564 5555 5547 5537 5528 5518 5508 5498 5488 5477 5467 5458 5447 5438 5430 5424 5422 5421 5423 5426 5431 5436 5441 5448 5458 5472 5487
5616 5619 5621 5620 5621 5621 5619 5615 5611 5605 5600 5592 5588 5585 5579 5575 5570 5562 5554 5546 5536 5526 5516 5507 5497 5488 5479 5469 5459 5451 5443 5434 5428 5425 5424 5426 5428 5432 5436 5442 5448 5458 5473 5489
5612 5614 5614 5615 5616 5616 5613 5610 5605 5600 5596 5590 5585 5582 5577 5573 5568 5562 5554 5545 5536 5526 5516 5507 5498 5490 5482 5473 5463 5455 5448 5442 5436 5432 5431 5431 5433 5436 5440 5445 5453 5464 5475 5492
5607 5608 5609 5609 5613 5612 5609 5605 5601 5597 5593 5589 5583 5579 5575 5572 5567 5561 5554 5546 5536 5526 5516 5507 5499 5492 5485 5477 5470 5461 5455 5450 5446 5444 5442 5442 5443 5444 5449 5455 5462 5470 5483 5498
5602 5603 5604 5606 5607 5607 5605 5601 5598 5595 5590 5587 5582 5579 5575 5571 5567 5562 5554 5547 5537 5528 5519 5510 5501 5495 5489 5483 5477 5470 5464 5459 5456 5455 5454 5454 5455 5458 5462 5466 5472 5480 5489 5500
5597 5598 5600 5601 5603 5603 5601 5598 5596 5593 5589 5585 5582 5578 5574 5571 5567 5563 5556 5548 5541 5532 5523 5514 5504 5497 5493 5489 5485 5478 5473 5470 5468 5466 5464 5465 5467 5470 5473 5479 5484 5491 5499 5506
5592 5594 5596 5597 5599 5599 5597 5596 5594 5592 5588 5585 5581 5578 5575 5572 5569 5565 5559 5553 5546 5539 5530 5520 5512 5505 5499 5494 5491 5487 5482 5479 5477 5476 5476 5475 5477 5480 5482 5486 5491 5497 5503 5509
5588 5589 5591 5593 5595 5595 5595 5594 5593 5591 5588 5586 5584 5582 5579 5576 5572 5568 5562 5557 5550 5543 5536 5528 5520 5513 5507 5503 5499 5495 5491 5489 5487 5486 5485 5484 5486 5487 5490 5493 5497 5502 5506 5512
5584 5584 5587 5590 5592 5593 5592 5592 5591 5591 5589 5587 5585 5584 5582 5579 5575 5571 5566 5561 5555 5548 5542 5535 5529 5522 5516 5511 5507 5503 5500 5497 5495 5494 5493 5493 5494 5495 5498 5501 5504 5507 5511 5514
5579 5580 5583 5586 5588 5590 5589 5590 5590 5590 5590 5588 5587 5586 5584 5582 5579 5575 5570 5565 5560 5554 5549 5543 5537 5532 5526 5522 5516 5513 5509 5506 5504 5503 5503 5504 5504 5505 5507 5509 5511 5512 5515 5518
5575 5576 5579 5582 5584 5586 5587 5587 5588 5589 5589 5588 5587 5586 5585 5583 5581 5578 5574 5570 5565 5560 5555 5550 5546 5541 5536 5532 5528 5524 5521 5518 5515 5514 5513 5512 5512 5512 5513 5514 5516 5518 5520 5522
5571 5571 5573 5577 5580 5582 5583 5583 5585 5586 5589 5586 5585 5585 5584 5583 5582 5580 5577 5573 5569 5565 5561 5556 5552 5548 5544 5540 5536 5532 5529 5526 5524 5523 5522 5522 5522 5522 5522 5523 5523 5525 5526 5527
5567 5567 5568 5572 5575 5578 5578 5580 5581 5583 5582 5583 5583 5583 5582 5582 5581 5580 5578 5575 5572 5569 5565 5562 5558 5553 5550 5546 5543 5540 5537 5534 5532 5531 5530 5530 5529 5529 5529 5529 5529 5530 5531 5531
5564 5564 5565 5567 5570 5572 5574 5576 5576 5578 5579 5580 5580 5580 5580 5580 5580 5579 5578 5576 5574 5571 5568 5565 5562 5558 5555 5551 5548 5546 5544 5542 5539 5537 5535 5534 5534 5534 5533 5533 5533 5533 5533 5533
5559 5558 5559 5562 5564 5566 5569 5571 5572 5574 5575 5576 5576 5577 5578 5578 5578 5577 5577 5575 5573 5571 5569 5566 5563 5561 5558 5555 5552 5550 5548 5546 5544 5542 5541 5539 5538 5537 5536 5535 5535 5534 5534 5534
5553 5553 5554 5557 5556 5557 5560 5563 5566 5568 5569 5571 5572 5573 5574 5575 5575 5575 5574 5573 5572 5570 5568 5566 5564 5561 5559 5556 5554 5552 5549 5547 5546 5544 5542 5541 5539 5537 5536 5535 5535 5534 5534 5533
5548 5547 5548 5548 5549 5552 5555 5559 5560 5561 5563 5565 5567 5567 5568 5570 5570 5570 5570 5569 5568 5567 5566 5564 5562 5560 5557 5556 5554 5552 5550 5548 5546 5544 5542 5541 5539 5538 5536 5534 5533 5532 5530 5529
Wind_Speed
36 35 35 32 31 32 33 34 35 37 39 42 45 48 47 46 45 43 47 53 57 61 67 72 72 64 52 48 47 50 52 53 50 53 54 55 56 62 65 72 91 97 97 96
36 36 40 31 31 31 32 33 34 37 40 43 46 45 42 42 45 48 51 54 58 61 57 53 51 47 45 45 46 45 44 46 47 48 49 51 57 58 55 65 78 84 92 97
36 39 33 30 27 29 30 32 34 38 41 43 44 43 42 45 45 47 48 50 46 48 48 44 44 43 42 42 42 43 43 43 42 43 43 45 47 51 53 62 68 77 83 92
35 33 28 25 27 29 28 31 33 37 41 45 44 46 45 46 41 40 40 37 39 41 43 42 40 41 39 37 37 38 38 39 39 38 38 41 48 47 51 55 56 65 69 82
28 27 25 23 28 29 27 29 33 37 40 42 42 46 40 34 35 31 35 36 34 37 37 38 38 37 35 36 37 36 33 31 31 32 27 28 28 38 46 48 49 54 61 74
33 27 24 26 29 25 25 29 33 37 41 42 43 44 34 34 29 31 39 33 32 32 34 33 32 31 31 32 34 34 31 27 26 25 23 23 19 25 34 44 51 50 54 64
26 26 24 26 27 21 24 28 33 39 40 41 43 33 32 29 26 35 32 30 27 31 32 34 32 32 29 29 30 30 30 27 22 22 24 21 20 23 27 34 45 45 47 59
22 22 24 24 20 17 23 26 31 37 39 41 32 29 27 23 27 28 28 28 29 33 34 33 30 29 27 25 26 27 26 22 16 16 18 18 18 19 23 25 37 42 47 53
26 22 20 20 15 16 20 25 29 34 37 38 27 27 22 20 25 27 29 29 31 33 35 31 29 27 25 22 23 25 25 19 12 9 10 14 18 19 15 23 32 38 44 49
23 18 16 17 11 15 20 24 29 32 37 35 26 24 20 20 23 25 28 31 32 33 33 29 27 25 22 21 21 23 25 23 15 6 3 9 17 15 14 25 31 34 39 42
16 14 15 16 9 14 17 23 25 31 28 30 27 22 17 17 20 23 28 32 34 35 32 26 25 24 23 20 20 21 22 22 19 14 8 4 7 9 19 29 31 34 39 38
17 17 16 12 9 12 16 19 24 29 25 26 25 19 14 16 19 25 28 31 29 33 33 23 24 21 21 20 19 23 23 19 14 11 10 11 14 19 24 27 36 41 40 34
19 18 16 10 9 10 13 17 22 21 20 20 20 18 14 14 19 25 27 26 28 28 30 28 23 20 19 20 20 23 25 26 23 17 19 22 24 29 33 36 37 39 39 34
19 16 15 10 8 8 9 16 19 15 16 16 15 12 15 15 17 22 22 21 23 25 28 27 22 16 19 20 22 23 25 26 25 25 23 22 22 25 26 30 33 37 39 39
17 13 13 10 7 6 8 13 13 11 13 13 11 11 12 13 13 15 19 23 26 28 26 31 30 22 14 21 20 23 25 26 26 25 25 24 22 20 19 20 22 24 25 26
15 12 11 11 6 4 7 10 7 7 12 11 11 12 14 18 21 22 24 24 26 29 34 35 31 34 32 24 20 24 26 26 25 26 26 26 24 20 18 18 19 20 20 21
15 12 15 13 6 3 5 6 2 6 10 16 19 19 19 20 20 22 25 27 29 29 31 34 37 34 34 32 31 30 28 26 26 26 24 24 22 21 22 22 20 18 15 13
15 14 17 14 8 6 2 2 3 9 16 16 18 18 18 20 22 24 27 29 32 34 34 32 33 36 38 35 30 27 25 26 27 27 26 24 23 21 20 21 17 15 15 13
15 15 18 13 12 9 4 3 8 14 12 14 13 13 15 17 19 23 27 30 32 34 34 34 33 31 32 32 35 37 34 29 26 24 24 25 22 19 17 16 16 15 16 14
13 15 20 17 15 12 8 7 11 13 11 11 10 8 8 11 14 18 24 27 30 33 34 33 32 32 33 32 29 28 28 29 31 34 33 32 30 29 27 27 23 19 17 16
14 15 24 18 17 16 13 11 12 16 15 13 11 7 3 4 8 14 19 23 26 30 32 32 31 29 27 28 28 29 28 26 25 24 23 23 22 22 21 21 20 18 17 16
13 14 25 20 19 20 17 15 15 15 16 17 15 12 7 2 4 7 12 16 20 24 28 29 30 29 28 26 25 25 23 21 21 21 19 17 17 16 16 16 15 14 12 11
12 14 24 22 21 21 21 19 18 18 18 21 19 16 13 9 7 7 8 10 14 18 21 24 25 26 26 26 25 24 23 21 19 17 15 13 13 12 11 10 9 9 8 8
12 16 18 29 24 23 23 25 22 22 21 23 23 21 19 15 13 11 11 11 12 15 19 21 22 23 23 23 22 22 20 19 20 21 20 19 18 16 14 13 12 12 11 11
15 14 20 25 28 30 28 28 26 25 25 26 26 25 24 21 18 16 15 14 14 16 16 20 19 21 22 21 21 19 18 17 15 15 16 17 17 17 17 17 16 15 15 15
13 13 15 20 36 33 29 27 29 29 28 26 26 27 28 27 24 22 20 18 17 18 19 21 20 20 22 23 20 20 18 16 15 13 12 12 14 16 17 18 18 19 19 19
Wind_Direction
272 272 272 273 277 284 289 292 295 294 299 303 312 313 311 310 305 298 293 293 293 294 296 296 296 297 296 292 289 284 281 281 280 278 273 268 262 255 245 233 225 222 220 218
269 273 273 268 275 283 289 292 295 298 304 308 314 316 315 310 302 296 292 295 299 302 303 305 307 305 303 297 291 288 285 283 280 275 270 263 256 250 244 234 227 224 222 218
270 273 265 269 278 285 290 295 297 302 307 312 316 315 313 310 306 300 301 305 308 307 312 316 316 311 304 299 294 290 287 281 279 276 272 265 259 253 241 232 228 222 223 219
266 278 268 269 277 283 290 295 298 303 311 318 320 318 317 311 308 310 314 316 315 317 321 323 320 318 312 305 299 297 293 283 279 277 271 265 261 248 236 229 225 222 220 220
275 267 263 276 282 285 291 297 301 307 315 319 321 319 322 320 319 324 322 322 323 331 335 329 323 319 314 309 308 312 308 289 277 275 267 281 266 237 226 222 219 219 215 217
282 267 265 276 282 287 296 300 307 312 318 321 327 326 326 328 332 330 329 328 340 350 343 335 331 324 322 319 318 315 306 292 274 269 254 269 275 235 227 217 212 217 214 213
264 264 264 274 278 289 297 305 310 316 323 327 330 329 330 335 330 332 338 340 349 347 342 335 333 333 330 329 325 317 311 303 283 265 249 250 256 235 223 217 212 213 209 209
256 254 264 272 280 291 300 306 314 320 324 328 331 331 335 334 333 343 348 348 347 343 341 343 338 332 332 337 332 324 326 317 298 269 254 244 236 220 214 212 204 207 206 207
258 256 265 280 274 291 299 307 318 322 323 325 337 334 333 339 337 344 345 347 345 343 343 341 343 339 336 345 347 343 341 339 323 285 251 231 219 199 210 200 196 197 201 203
251 253 274 277 276 291 304 314 322 326 328 327 338 339 339 340 338 342 344 349 348 346 344 343 342 346 348 358 7 2 354 356 353 342 217 203 197 199 206 194 186 185 191 193
263 266 274 271 277 293 308 316 324 325 331 330 337 343 338 335 336 339 342 344 342 343 340 349 349 352 358 7 23 26 17 11 16 31 54 121 181 190 193 182 171 169 173 175
264 265 272 259 278 297 312 318 327 328 331 336 342 341 342 339 340 342 344 346 350 348 348 351 359 358 8 15 34 44 44 43 45 69 99 125 152 163 161 152 156 158 153 161
263 266 269 247 268 295 311 324 328 332 336 346 345 337 343 337 343 345 341 347 350 350 352 354 360 17 16 29 39 56 57 59 68 83 106 119 130 135 138 144 148 147 147 162
263 271 268 237 265 294 314 330 329 333 348 348 349 359 345 338 345 345 342 356 8 13 18 17 23 26 27 38 49 57 66 67 68 76 86 98 113 124 133 141 147 152 158 166
262 261 256 232 260 292 327 337 330 344 355 0 17 12 3 355 10 10 24 28 29 34 30 36 39 38 37 35 50 64 71 74 74 77 86 90 99 113 128 141 147 155 164 173
266 256 229 242 247 276 339 339 341 356 11 27 36 42 55 67 63 52 48 45 38 40 45 47 53 54 60 70 67 62 69 75 82 89 89 90 92 97 111 132 151 164 174 183
267 243 202 235 239 255 336 340 1 32 64 83 79 74 64 60 54 49 44 42 41 41 42 46 49 56 58 64 66 66 72 76 82 83 82 83 91 103 112 114 117 125 142 169
268 239 198 219 214 212 285 332 146 111 111 93 82 73 63 55 53 52 49 46 43 42 44 45 47 52 58 61 58 62 65 66 72 73 75 80 90 102 103 111 111 120 129 149
261 239 204 208 206 200 197 193 162 151 130 115 98 78 62 54 53 51 50 48 46 44 44 45 48 51 53 55 60 63 67 70 75 78 82 84 83 86 89 98 108 113 117 119
258 235 208 209 206 199 193 190 190 186 168 154 132 104 69 51 46 45 46 45 46 46 44 43 48 51 54 56 58 63 69 73 74 79 84 85 85 87 88 90 93 92 88 91
262 241 212 203 207 204 198 196 199 199 192 193 181 169 130 49 36 36 38 39 39 40 41 40 40 41 44 47 50 54 56 62 67 70 72 77 83 88 92 94 96 98 101 104
263 253 207 199 207 210 202 198 202 202 209 210 210 207 208 248 348 20 27 31 32 32 34 35 36 35 34 34 36 41 49 56 60 63 67 70 73 74 76 77 80 81 80 78
263 252 217 209 212 215 209 205 206 211 217 219 226 229 231 240 269 300 332 2 14 19 22 22 25 29 33 32 30 30 33 39 45 51 57 60 58 57 58 57 55 47 41 32
267 253 239 212 221 220 219 217 214 214 220 222 230 236 243 246 257 274 296 322 340 354 1 4 6 10 15 21 25 22 24 31 33 34 33 32 31 29 28 23 17 10 3 359
267 262 249 227 225 220 221 220 216 218 220 227 234 240 247 254 259 271 282 296 313 325 337 338 349 346 352 358 5 8 7 6 11 15 21 21 20 15 11 7 2 356 350 343
277 277 265 243 227 225 228 226 226 225 226 230 238 245 250 255 261 268 276 282 291 302 309 318 333 336 332 336 345 349 352 347 343 345 347 355 359 358 354 350 347 346 341 333